Date,TemperatureHighF,TemperatureAvgF,TemperatureLowF,DewpointHighF,DewpointAvgF,DewpointLowF,HumidityHigh,HumidityAvg,HumidityLow,PressureMaxIn,PressureMinIn,WindSpeedMaxMPH,WindSpeedAvgMPH,GustSpeedMaxMPH,PrecipitationSumIn
2013-3-1,54.0,39.7,25.0,21.6,15.5,8.5,54,38,26,30.38,30.24,34,9,34,0.00
2013-3-2,62.0,41.9,23.0,22.8,20.6,17.5,91,48,19,30.45,30.22,19,5,19,0.00
2013-3-3,57.0,42.0,27.0,26.5,22.0,17.2,87,50,21,30.24,29.94,13,4,13,0.00
2013-3-4,56.0,45.7,34.0,28.7,20.6,8.5,61,38,24,30.17,29.91,30,7,30,0.00
2013-3-5,56.0,40.0,23.0,15.3,10.2,1.4,71,34,11,30.32,30.14,11,5,15,0.00
2013-3-6,64.0,47.4,31.0,19.0,14.5,11.5,50,29,13,30.19,29.96,15,6,17,0.00
2013-3-7,67.0,48.1,30.0,21.4,14.5,4.7,70,31,10,30.12,29.90,27,6,27,0.00
2013-3-8,54.0,38.9,33.0,37.6,27.1,-69.2,100,67,31,30.04,29.80,42,7,42,0.24
2013-3-9,39.0,32.9,27.0,35.0,25.9,20.1,100,77,51,30.04,29.83,25,7,25,0.01
2013-3-10,49.0,35.2,25.0,29.0,20.1,14.2,100,61,25,30.20,30.05,16,5,16,0.00
2013-3-11,55.0,39.7,22.0,24.8,20.2,15.3,100,52,24,30.24,30.06,30,7,30,0.00
2013-3-12,61.0,45.9,29.0,26.7,23.2,19.3,78,44,22,30.28,30.14,26,6,26,0.00
2013-3-13,66.0,47.5,28.0,27.0,24.4,20.4,90,46,19,30.38,30.23,19,5,19,0.00
2013-3-14,70.0,51.3,31.0,27.1,22.4,16.0,77,38,13,30.40,30.20,17,5,17,0.00
2013-3-15,73.0,53.3,33.0,25.2,20.7,12.2,66,34,10,30.27,30.00,21,5,21,0.00
2013-3-16,66.0,50.0,36.0,30.2,25.1,18.7,63,40,19,30.04,29.86,26,6,29,0.00
2013-3-17,62.0,48.3,35.0,31.0,19.1,-0.8,72,39,8,29.97,29.77,41,9,41,0.00
2013-3-18,57.0,44.4,29.0,14.1,7.6,-2.1,51,25,9,30.09,29.97,24,6,28,0.00
2013-3-19,58.0,43.6,32.0,17.8,12.2,5.2,47,29,16,30.22,30.06,28,6,28,0.00
2013-3-20,62.0,45.6,28.0,26.9,16.6,10.4,53,33,17,30.26,29.94,25,5,25,0.00
2013-3-21,61.0,50.1,37.0,30.1,18.0,-2.9,68,33,8,29.94,29.76,29,8,41,0.00
2013-3-22,61.0,43.0,25.0,12.5,-1.7,-24.6,42,18,3,29.94,29.67,35,6,37,0.01
2013-3-23,39.0,31.1,24.0,5.9,-5.9,-18.2,39,21,9,30.14,29.83,35,10,35,0.00
2013-3-24,44.0,30.5,12.0,6.0,-0.7,-6.7,74,30,14,30.18,30.01,28,6,31,0.00
2013-3-25,51.0,35.9,17.0,10.1,3.3,-3.4,59,27,14,30.22,30.08,27,5,27,0.00
2013-3-26,63.0,44.5,25.0,13.8,9.8,6.4,53,28,11,30.18,29.96,14,5,19,0.00
2013-3-27,68.0,51.0,31.0,17.7,11.4,2.9,56,24,9,30.12,29.98,20,5,21,0.00
2013-3-28,68.0,54.1,38.0,19.6,12.0,6.2,37,20,9,30.16,30.04,20,5,20,0.00
2013-3-29,69.0,53.8,36.0,25.7,17.7,11.2,46,26,13,30.23,30.08,24,5,24,0.00
2013-3-30,69.0,52.8,34.0,24.1,20.2,13.6,61,32,13,30.24,30.04,27,6,29,0.00
2013-3-31,70.0,54.2,35.0,27.6,22.0,16.0,61,31,14,30.18,29.98,22,4,23,0.00